Year,Month,Day,Hour,Minute,Value (Times are PST for windspeed in km/hr)
2012,01,21,00,00,7.90
2012,01,21,00,01,8.10
2012,01,21,00,02,8.10
2012,01,21,00,03,8.10
2012,01,21,00,04,8.10
2012,01,21,00,05,8.10
2012,01,21,00,06,8.10
2012,01,21,00,07,10.30
2012,01,21,00,08,9.10
2012,01,21,00,09,10.30
2012,01,21,00,10,13.10
2012,01,21,00,11,21.50
2012,01,21,00,12,17.00
2012,01,21,00,13,17.00
2012,01,21,00,14,11.00
2012,01,21,00,15,11.00
2012,01,21,00,16,13.00
2012,01,21,00,17,12.00
2012,01,21,00,18,10.60
2012,01,21,00,19,18.00
2012,01,21,00,20,15.70
2012,01,21,00,21,15.00
2012,01,21,00,22,9.00
2012,01,21,00,23,7.30
2012,01,21,00,24,12.60
2012,01,21,00,25,11.60
2012,01,21,00,26,13.00
2012,01,21,00,27,16.30
2012,01,21,00,28,9.60
2012,01,21,00,29,13.80
2012,01,21,00,30,14.70
2012,01,21,00,31,9.30
2012,01,21,00,32,10.40
2012,01,21,00,33,18.80
2012,01,21,00,34,20.10
2012,01,21,00,35,17.60
2012,01,21,00,36,16.20
2012,01,21,00,37,16.70
2012,01,21,00,38,14.90
2012,01,21,00,39,14.10
2012,01,21,00,40,14.00
2012,01,21,00,41,17.60
2012,01,21,00,42,11.80
2012,01,21,00,43,13.30
2012,01,21,00,44,18.20
2012,01,21,00,45,15.90
2012,01,21,00,46,12.20
2012,01,21,00,47,11.70
2012,01,21,00,48,16.80
2012,01,21,00,49,19.40
2012,01,21,00,50,16.90
2012,01,21,00,51,13.80
2012,01,21,00,52,17.40
2012,01,21,00,53,14.70
2012,01,21,00,54,12.40
2012,01,21,00,55,14.10
2012,01,21,00,56,17.40
2012,01,21,00,57,14.50
2012,01,21,00,58,11.70
2012,01,21,00,59,12.60
2012,01,21,01,00,15.50
2012,01,21,01,01,17.50
2012,01,21,01,02,16.40
2012,01,21,01,03,13.00
2012,01,21,01,04,17.20
2012,01,21,01,05,17.90
2012,01,21,01,06,10.80
2012,01,21,01,07,8.50
2012,01,21,01,08,15.70
2012,01,21,01,09,10.80
2012,01,21,01,10,12.70
2012,01,21,01,11,8.20
2012,01,21,01,12,6.40
2012,01,21,01,13,9.70
2012,01,21,01,14,12.30
2012,01,21,01,15,8.10
2012,01,21,01,16,8.70
2012,01,21,01,17,11.50
2012,01,21,01,18,10.30
2012,01,21,01,19,10.30
2012,01,21,01,20,6.60
2012,01,21,01,21,9.70
2012,01,21,01,22,11.80
2012,01,21,01,23,7.00
2012,01,21,01,24,12.10
2012,01,21,01,25,8.70
2012,01,21,01,26,11.90
2012,01,21,01,27,10.00
2012,01,21,01,28,9.40
2012,01,21,01,29,12.80
2012,01,21,01,30,9.70
2012,01,21,01,31,12.50
2012,01,21,01,32,8.70
2012,01,21,01,33,9.90
2012,01,21,01,34,12.20
2012,01,21,01,35,11.60
2012,01,21,01,36,11.60
2012,01,21,01,37,8.70
2012,01,21,01,38,7.60
2012,01,21,01,39,6.60
2012,01,21,01,40,4.70
2012,01,21,01,41,4.50
2012,01,21,01,42,5.60
2012,01,21,01,43,2.70
2012,01,21,01,44,12.30
2012,01,21,01,45,11.20
2012,01,21,01,46,8.20
2012,01,21,01,47,9.30
2012,01,21,01,48,5.80
2012,01,21,01,49,9.10
2012,01,21,01,50,7.50
2012,01,21,01,51,10.10
2012,01,21,01,52,7.00
2012,01,21,01,53,6.40
2012,01,21,01,54,9.20
2012,01,21,01,55,7.90
2012,01,21,01,56,11.80
2012,01,21,01,57,12.80
2012,01,21,01,58,13.50
2012,01,21,01,59,19.30
2012,01,21,02,00,12.50
2012,01,21,02,01,9.30
2012,01,21,02,02,17.60
2012,01,21,02,03,12.30
2012,01,21,02,04,11.50
2012,01,21,02,05,16.00
2012,01,21,02,06,16.80
2012,01,21,02,07,10.50
2012,01,21,02,08,15.40
2012,01,21,02,09,16.50
2012,01,21,02,10,8.00
2012,01,21,02,11,10.30
2012,01,21,02,12,16.40
2012,01,21,02,13,10.10
2012,01,21,02,14,8.50
2012,01,21,02,15,12.90
2012,01,21,02,16,15.90
2012,01,21,02,17,12.00
2012,01,21,02,18,10.60
2012,01,21,02,19,14.80
2012,01,21,02,20,10.10
2012,01,21,02,21,13.20
2012,01,21,02,22,11.70
2012,01,21,02,23,12.80
2012,01,21,02,24,13.20
2012,01,21,02,25,13.10
2012,01,21,02,26,9.70
2012,01,21,02,27,11.10
2012,01,21,02,28,12.10
2012,01,21,02,29,10.90
2012,01,21,02,30,14.10
2012,01,21,02,31,8.10
2012,01,21,02,32,7.30
2012,01,21,02,33,11.70
2012,01,21,02,34,9.00
2012,01,21,02,35,8.50
2012,01,21,02,36,9.40
2012,01,21,02,37,7.00
2012,01,21,02,38,8.90
2012,01,21,02,39,13.20
2012,01,21,02,40,9.90
2012,01,21,02,41,13.00
2012,01,21,02,42,6.40
2012,01,21,02,43,7.00
2012,01,21,02,44,10.70
2012,01,21,02,45,10.10
2012,01,21,02,46,10.20
2012,01,21,02,47,11.10
2012,01,21,02,48,8.00
2012,01,21,02,49,11.20
2012,01,21,02,50,12.70
2012,01,21,02,51,8.70
2012,01,21,02,52,12.10
2012,01,21,02,53,14.60
2012,01,21,02,54,14.70
2012,01,21,02,55,10.90
2012,01,21,02,56,13.00
2012,01,21,02,57,10.00
2012,01,21,02,58,7.90
2012,01,21,02,59,12.00
2012,01,21,03,00,7.80
2012,01,21,03,01,13.10
2012,01,21,03,02,14.20
2012,01,21,03,03,9.70
2012,01,21,03,04,11.30
2012,01,21,03,05,11.60
2012,01,21,03,06,8.00
2012,01,21,03,07,7.90
2012,01,21,03,08,15.80
2012,01,21,03,09,15.40
2012,01,21,03,10,12.20
2012,01,21,03,11,11.90
2012,01,21,03,12,13.50
2012,01,21,03,13,6.90
2012,01,21,03,14,10.70
2012,01,21,03,15,8.50
2012,01,21,03,16,9.70
2012,01,21,03,17,13.00
2012,01,21,03,18,11.40
2012,01,21,03,19,9.70
2012,01,21,03,20,11.20
2012,01,21,03,21,11.30
2012,01,21,03,22,11.60
2012,01,21,03,23,8.60
2012,01,21,03,24,11.90
2012,01,21,03,25,8.40
2012,01,21,03,26,6.40
2012,01,21,03,27,10.50
2012,01,21,03,28,10.70
2012,01,21,03,29,8.00
2012,01,21,03,30,4.50
2012,01,21,03,31,8.90
2012,01,21,03,32,10.10
2012,01,21,03,33,6.00
2012,01,21,03,34,7.90
2012,01,21,03,35,4.40
2012,01,21,03,36,5.80
2012,01,21,03,37,9.80
2012,01,21,03,38,7.60
2012,01,21,03,39,4.60
2012,01,21,03,40,5.20
2012,01,21,03,41,4.20
2012,01,21,03,42,4.00
2012,01,21,03,43,4.00
2012,01,21,03,44,1.90
2012,01,21,03,45,4.20
2012,01,21,03,46,1.50
2012,01,21,03,47,5.70
2012,01,21,03,48,7.90
2012,01,21,03,49,6.60
2012,01,21,03,50,9.30
2012,01,21,03,51,11.10
2012,01,21,03,52,16.10
2012,01,21,03,53,13.40
2012,01,21,03,54,14.00
2012,01,21,03,55,17.50
2012,01,21,03,56,15.60
2012,01,21,03,57,17.20
2012,01,21,03,58,17.10
2012,01,21,03,59,25.10
2012,01,21,04,00,25.80
2012,01,21,04,01,20.40
2012,01,21,04,02,20.00
2012,01,21,04,03,19.10
2012,01,21,04,04,18.00
2012,01,21,04,05,20.20
2012,01,21,04,06,23.20
2012,01,21,04,07,19.60
2012,01,21,04,08,23.60
2012,01,21,04,09,14.50
2012,01,21,04,10,18.60
2012,01,21,04,11,27.20
2012,01,21,04,12,29.00
2012,01,21,04,13,22.00
2012,01,21,04,14,19.00
2012,01,21,04,15,14.90
2012,01,21,04,16,20.40
2012,01,21,04,17,23.00
2012,01,21,04,18,17.20
2012,01,21,04,19,24.30
2012,01,21,04,20,32.20
2012,01,21,04,21,29.40
2012,01,21,04,22,28.40
2012,01,21,04,23,21.10
2012,01,21,04,24,18.90
2012,01,21,04,25,19.80
2012,01,21,04,26,22.90
2012,01,21,04,27,30.70
2012,01,21,04,28,27.60
2012,01,21,04,29,24.50
2012,01,21,04,30,27.40
2012,01,21,04,31,28.70
2012,01,21,04,32,19.20
2012,01,21,04,33,20.70
2012,01,21,04,34,20.60
2012,01,21,04,35,26.00
2012,01,21,04,36,21.90
2012,01,21,04,37,21.90
2012,01,21,04,38,17.90
2012,01,21,04,39,28.50
2012,01,21,04,40,25.00
2012,01,21,04,41,21.70
2012,01,21,04,42,21.70
2012,01,21,04,43,22.60
2012,01,21,04,44,27.10
2012,01,21,04,45,24.20
2012,01,21,04,46,29.20
2012,01,21,04,47,39.20
2012,01,21,04,48,30.00
2012,01,21,04,49,24.20
2012,01,21,04,50,30.30
2012,01,21,04,51,37.80
2012,01,21,04,52,28.60
2012,01,21,04,53,32.60
2012,01,21,04,54,24.20
2012,01,21,04,55,28.10
2012,01,21,04,56,21.60
2012,01,21,04,57,25.80
2012,01,21,04,58,30.60
2012,01,21,04,59,34.10
2012,01,21,05,00,36.70
2012,01,21,05,01,39.20
2012,01,21,05,02,31.00
2012,01,21,05,03,27.80
2012,01,21,05,04,33.20
2012,01,21,05,05,40.20
2012,01,21,05,06,35.10
2012,01,21,05,07,25.80
2012,01,21,05,08,34.40
2012,01,21,05,09,30.50
2012,01,21,05,10,26.80
2012,01,21,05,11,29.50
2012,01,21,05,12,23.10
2012,01,21,05,13,28.60
2012,01,21,05,14,22.70
2012,01,21,05,15,23.00
2012,01,21,05,16,31.60
2012,01,21,05,17,27.90
2012,01,21,05,18,23.70
2012,01,21,05,19,32.90
2012,01,21,05,20,24.70
2012,01,21,05,21,26.50
2012,01,21,05,22,30.70
2012,01,21,05,23,23.80
2012,01,21,05,24,25.30
2012,01,21,05,25,21.90
2012,01,21,05,26,31.30
2012,01,21,05,27,31.50
2012,01,21,05,28,18.60
2012,01,21,05,29,21.40
2012,01,21,05,30,20.00
2012,01,21,05,31,17.30
2012,01,21,05,32,14.70
2012,01,21,05,33,23.00
2012,01,21,05,34,20.80
2012,01,21,05,35,21.70
2012,01,21,05,36,23.10
2012,01,21,05,37,18.00
2012,01,21,05,38,22.10
2012,01,21,05,39,26.20
2012,01,21,05,40,19.30
2012,01,21,05,41,18.30
2012,01,21,05,42,18.50
2012,01,21,05,43,24.90
2012,01,21,05,44,17.50
2012,01,21,05,45,24.50
2012,01,21,05,46,21.60
2012,01,21,05,47,21.30
2012,01,21,05,48,22.40
2012,01,21,05,49,13.20
2012,01,21,05,50,22.40
2012,01,21,05,51,23.50
2012,01,21,05,52,13.80
2012,01,21,05,53,18.00
2012,01,21,05,54,15.40
2012,01,21,05,55,10.10
2012,01,21,05,56,14.20
2012,01,21,05,57,11.90
2012,01,21,05,58,10.80
2012,01,21,05,59,17.10
2012,01,21,06,00,15.90
2012,01,21,06,01,17.90
2012,01,21,06,02,26.80
2012,01,21,06,03,21.20
2012,01,21,06,04,13.80
2012,01,21,06,05,14.00
2012,01,21,06,06,15.00
2012,01,21,06,07,17.10
2012,01,21,06,08,17.00
2012,01,21,06,09,17.60
2012,01,21,06,10,15.10
2012,01,21,06,11,10.60
2012,01,21,06,12,13.80
2012,01,21,06,13,8.70
2012,01,21,06,14,12.60
2012,01,21,06,15,20.10
2012,01,21,06,16,14.60
2012,01,21,06,17,12.50
2012,01,21,06,18,15.00
2012,01,21,06,19,14.80
2012,01,21,06,20,13.50
2012,01,21,06,21,12.00
2012,01,21,06,22,10.00
2012,01,21,06,23,7.70
2012,01,21,06,24,11.10
2012,01,21,06,25,10.70
2012,01,21,06,26,6.00
2012,01,21,06,27,1.90
2012,01,21,06,28,3.90
2012,01,21,06,29,3.50
2012,01,21,06,30,11.20
2012,01,21,06,31,7.30
2012,01,21,06,32,4.30
2012,01,21,06,33,4.60
2012,01,21,06,34,4.70
2012,01,21,06,35,9.00
2012,01,21,06,36,11.90
2012,01,21,06,37,9.30
2012,01,21,06,38,6.30
2012,01,21,06,39,6.20
2012,01,21,06,40,9.40
2012,01,21,06,41,4.80
2012,01,21,06,42,3.60
2012,01,21,06,43,4.50
2012,01,21,06,44,4.80
2012,01,21,06,45,1.90
2012,01,21,06,46,0.30
2012,01,21,06,47,2.60
2012,01,21,06,48,1.90
2012,01,21,06,49,1.80
2012,01,21,06,50,1.00
2012,01,21,06,51,2.30
2012,01,21,06,52,2.70
2012,01,21,06,53,6.00
2012,01,21,06,54,11.70
2012,01,21,06,55,7.20
2012,01,21,06,56,7.80
2012,01,21,06,57,3.40
2012,01,21,06,58,2.20
2012,01,21,06,59,5.40
2012,01,21,07,00,4.40
2012,01,21,07,01,4.30
2012,01,21,07,02,2.80
2012,01,21,07,03,1.90
2012,01,21,07,04,2.90
2012,01,21,07,05,3.70
2012,01,21,07,06,1.10
2012,01,21,07,07,3.50
2012,01,21,07,08,4.90
2012,01,21,07,09,4.50
2012,01,21,07,10,2.80
2012,01,21,07,11,4.30
2012,01,21,07,12,7.60
2012,01,21,07,13,4.70
2012,01,21,07,14,4.30
2012,01,21,07,15,5.40
2012,01,21,07,16,2.20
2012,01,21,07,17,1.90
2012,01,21,07,18,0.80
2012,01,21,07,19,2.10
2012,01,21,07,20,3.10
2012,01,21,07,21,2.20
2012,01,21,07,22,4.50
2012,01,21,07,23,5.20
2012,01,21,07,24,6.00
2012,01,21,07,25,8.90
2012,01,21,07,26,4.80
2012,01,21,07,27,3.90
2012,01,21,07,28,1.80
2012,01,21,07,29,6.80
2012,01,21,07,30,6.40
2012,01,21,07,31,10.70
2012,01,21,07,32,6.30
2012,01,21,07,33,7.60
2012,01,21,07,34,6.80
2012,01,21,07,35,2.30
2012,01,21,07,36,3.70
2012,01,21,07,37,5.00
2012,01,21,07,38,5.10
2012,01,21,07,39,3.70
2012,01,21,07,40,7.00
2012,01,21,07,41,5.80
2012,01,21,07,42,5.50
2012,01,21,07,43,13.80
2012,01,21,07,44,7.00
2012,01,21,07,45,4.30
2012,01,21,07,46,3.90
2012,01,21,07,47,3.50
2012,01,21,07,48,7.60
2012,01,21,07,49,7.00
2012,01,21,07,50,8.90
2012,01,21,07,51,3.20
2012,01,21,07,52,7.80
2012,01,21,07,53,8.00
2012,01,21,07,54,10.00
2012,01,21,07,55,14.20
2012,01,21,07,56,4.80
2012,01,21,07,57,7.70
2012,01,21,07,58,6.70
2012,01,21,07,59,7.30
2012,01,21,08,00,7.60
2012,01,21,08,01,10.70
2012,01,21,08,02,5.90
2012,01,21,08,03,7.30
2012,01,21,08,04,7.70
2012,01,21,08,05,7.80
2012,01,21,08,06,8.40
2012,01,21,08,07,3.60
2012,01,21,08,08,10.00
2012,01,21,08,09,4.70
2012,01,21,08,10,4.00
2012,01,21,08,11,4.80
2012,01,21,08,12,2.30
2012,01,21,08,13,8.80
2012,01,21,08,14,8.10
2012,01,21,08,15,4.30
2012,01,21,08,16,3.10
2012,01,21,08,17,6.00
2012,01,21,08,18,4.90
2012,01,21,08,19,7.70
2012,01,21,08,20,3.90
2012,01,21,08,21,5.50
2012,01,21,08,22,4.30
2012,01,21,08,23,3.20
2012,01,21,08,24,4.70
2012,01,21,08,25,5.10
2012,01,21,08,26,5.60
2012,01,21,08,27,6.40
2012,01,21,08,28,6.80
2012,01,21,08,29,6.80
2012,01,21,08,30,4.10
2012,01,21,08,31,3.90
2012,01,21,08,32,2.60
2012,01,21,08,33,4.60
2012,01,21,08,34,4.30
2012,01,21,08,35,4.70
2012,01,21,08,36,6.80
2012,01,21,08,37,7.10
2012,01,21,08,38,11.40
2012,01,21,08,39,10.60
2012,01,21,08,40,11.20
2012,01,21,08,41,7.00
2012,01,21,08,42,7.00
2012,01,21,08,43,7.10
2012,01,21,08,44,6.20
2012,01,21,08,45,8.50
2012,01,21,08,46,7.00
2012,01,21,08,47,6.60
2012,01,21,08,48,7.30
2012,01,21,08,49,6.30
2012,01,21,08,50,10.10
2012,01,21,08,51,7.20
2012,01,21,08,52,6.80
2012,01,21,08,53,5.20
2012,01,21,08,54,6.30
2012,01,21,08,55,6.00
2012,01,21,08,56,6.60
2012,01,21,08,57,10.50
2012,01,21,08,58,7.60
2012,01,21,08,59,6.40
2012,01,21,09,00,8.90
2012,01,21,09,01,10.60
2012,01,21,09,02,6.30
2012,01,21,09,03,6.90
2012,01,21,09,04,2.50
2012,01,21,09,05,7.30
2012,01,21,09,06,10.90
2012,01,21,09,07,9.50
2012,01,21,09,08,8.40
2012,01,21,09,09,8.00
2012,01,21,09,10,6.40
2012,01,21,09,11,6.60
2012,01,21,09,12,5.20
2012,01,21,09,13,9.10
2012,01,21,09,14,8.50
2012,01,21,09,15,5.60
2012,01,21,09,16,6.20
2012,01,21,09,17,6.80
2012,01,21,09,18,11.20
2012,01,21,09,19,5.50
2012,01,21,09,20,6.20
2012,01,21,09,21,8.40
2012,01,21,09,22,8.50
2012,01,21,09,23,8.40
2012,01,21,09,24,7.30
2012,01,21,09,25,11.70
2012,01,21,09,26,9.00
2012,01,21,09,27,7.70
2012,01,21,09,28,10.50
2012,01,21,09,29,9.30
2012,01,21,09,30,8.20
2012,01,21,09,31,12.30
2012,01,21,09,32,7.30
2012,01,21,09,33,7.80
2012,01,21,09,34,15.10
2012,01,21,09,35,11.80
2012,01,21,09,36,8.90
2012,01,21,09,37,12.90
2012,01,21,09,38,23.90
2012,01,21,09,39,13.20
2012,01,21,09,40,14.80
2012,01,21,09,41,22.30
2012,01,21,09,42,18.10
2012,01,21,09,43,17.50
2012,01,21,09,44,12.70
2012,01,21,09,45,16.30
2012,01,21,09,46,14.00
2012,01,21,09,47,7.60
2012,01,21,09,48,14.20
2012,01,21,09,49,14.60
2012,01,21,09,50,12.00
2012,01,21,09,51,10.30
2012,01,21,09,52,17.00
2012,01,21,09,53,14.60
2012,01,21,09,54,12.30
2012,01,21,09,55,6.60
2012,01,21,09,56,8.60
2012,01,21,09,57,12.40
2012,01,21,09,58,10.80
2012,01,21,09,59,13.80
2012,01,21,10,00,14.20
2012,01,21,10,01,13.00
2012,01,21,10,02,13.70
2012,01,21,10,03,19.40
2012,01,21,10,04,10.20
2012,01,21,10,05,10.20
2012,01,21,10,06,13.80
2012,01,21,10,07,18.10
2012,01,21,10,08,17.10
2012,01,21,10,09,15.20
2012,01,21,10,10,10.60
2012,01,21,10,11,20.10
2012,01,21,10,12,15.70
2012,01,21,10,13,15.50
2012,01,21,10,14,14.80
2012,01,21,10,15,17.50
2012,01,21,10,16,21.20
2012,01,21,10,17,16.70
2012,01,21,10,18,16.30
2012,01,21,10,19,6.80
2012,01,21,10,20,12.00
2012,01,21,10,21,11.00
2012,01,21,10,22,14.20
2012,01,21,10,23,10.50
2012,01,21,10,24,19.80
2012,01,21,10,25,19.70
2012,01,21,10,26,16.50
2012,01,21,10,27,8.60
2012,01,21,10,28,7.40
2012,01,21,10,29,14.90
2012,01,21,10,30,21.60
2012,01,21,10,31,25.50
2012,01,21,10,32,15.50
2012,01,21,10,33,13.50
2012,01,21,10,34,18.00
2012,01,21,10,35,15.80
2012,01,21,10,36,17.90
2012,01,21,10,37,15.50
2012,01,21,10,38,15.00
2012,01,21,10,39,20.90
2012,01,21,10,40,14.50
2012,01,21,10,41,14.00
2012,01,21,10,42,19.00
2012,01,21,10,43,16.80
2012,01,21,10,44,8.60
2012,01,21,10,45,13.10
2012,01,21,10,46,17.70
2012,01,21,10,47,15.60
2012,01,21,10,48,10.20
2012,01,21,10,49,9.90
2012,01,21,10,50,4.70
2012,01,21,10,51,9.70
2012,01,21,10,52,5.70
2012,01,21,10,53,8.90
2012,01,21,10,54,9.20
2012,01,21,10,55,4.80
2012,01,21,10,56,4.00
2012,01,21,10,57,5.60
2012,01,21,10,58,7.20
2012,01,21,10,59,15.20
2012,01,21,11,00,12.40
2012,01,21,11,01,21.60
2012,01,21,11,02,23.00
2012,01,21,11,03,13.60
2012,01,21,11,04,7.90
2012,01,21,11,05,5.20
2012,01,21,11,06,9.50
2012,01,21,11,07,16.00
2012,01,21,11,08,13.60
2012,01,21,11,09,9.30
2012,01,21,11,10,22.50
2012,01,21,11,11,9.00
2012,01,21,11,12,5.80
2012,01,21,11,13,8.90
2012,01,21,11,14,13.30
2012,01,21,11,15,6.60
2012,01,21,11,16,13.70
2012,01,21,11,17,15.80
2012,01,21,11,18,14.60
2012,01,21,11,19,10.60
2012,01,21,11,20,16.40
2012,01,21,11,21,9.70
2012,01,21,11,22,9.80
2012,01,21,11,23,17.30
2012,01,21,11,24,5.40
2012,01,21,11,25,7.60
2012,01,21,11,26,9.70
2012,01,21,11,27,8.20
2012,01,21,11,28,10.60
2012,01,21,11,29,16.20
2012,01,21,11,30,18.50
2012,01,21,11,31,22.80
2012,01,21,11,32,17.00
2012,01,21,11,33,24.50
2012,01,21,11,34,19.30
2012,01,21,11,35,12.80
2012,01,21,11,36,19.60
2012,01,21,11,37,18.40
2012,01,21,11,38,10.80
2012,01,21,11,39,3.70
2012,01,21,11,40,9.50
2012,01,21,11,41,17.10
2012,01,21,11,42,23.70
2012,01,21,11,43,21.20
2012,01,21,11,44,14.60
2012,01,21,11,45,5.20
2012,01,21,11,46,10.20
2012,01,21,11,47,10.60
2012,01,21,11,48,13.40
2012,01,21,11,49,12.60
2012,01,21,11,50,5.70
2012,01,21,11,51,7.20
2012,01,21,11,52,3.90
2012,01,21,11,53,7.50
2012,01,21,11,54,6.30
2012,01,21,11,55,7.10
2012,01,21,11,56,2.20
2012,01,21,11,57,4.70
2012,01,21,11,58,7.50
2012,01,21,11,59,7.10
2012,01,21,12,00,3.70
2012,01,21,12,01,4.20
2012,01,21,12,02,4.30
2012,01,21,12,03,4.30
2012,01,21,12,04,4.40
2012,01,21,12,05,6.80
2012,01,21,12,06,4.30
2012,01,21,12,07,5.20
2012,01,21,12,08,9.80
2012,01,21,12,09,5.90
2012,01,21,12,10,6.20
2012,01,21,12,11,3.50
2012,01,21,12,12,8.10
2012,01,21,12,13,13.70
2012,01,21,12,14,13.90
2012,01,21,12,15,8.00
2012,01,21,12,16,9.60
2012,01,21,12,17,7.80
2012,01,21,12,18,23.70
2012,01,21,12,19,17.50
2012,01,21,12,20,7.90
2012,01,21,12,21,6.20
2012,01,21,12,22,5.50
2012,01,21,12,23,12.00
2012,01,21,12,24,7.00
2012,01,21,12,25,3.90
2012,01,21,12,26,5.20
2012,01,21,12,27,13.50
2012,01,21,12,28,6.10
2012,01,21,12,29,8.90
2012,01,21,12,30,5.20
2012,01,21,12,31,1.80
2012,01,21,12,32,4.80
2012,01,21,12,33,4.30
2012,01,21,12,34,9.80
2012,01,21,12,35,3.40
2012,01,21,12,36,4.10
2012,01,21,12,37,6.90
2012,01,21,12,38,8.80
2012,01,21,12,39,2.50
2012,01,21,12,40,2.90
2012,01,21,12,41,2.50
2012,01,21,12,42,1.90
2012,01,21,12,43,7.90
2012,01,21,12,44,9.70
2012,01,21,12,45,4.80
2012,01,21,12,46,11.20
2012,01,21,12,47,16.50
2012,01,21,12,48,13.10
2012,01,21,12,49,9.70
2012,01,21,12,50,10.60
2012,01,21,12,51,16.50
2012,01,21,12,52,12.80
2012,01,21,12,53,17.00
2012,01,21,12,54,13.40
2012,01,21,12,55,14.70
2012,01,21,12,56,15.40
2012,01,21,12,57,8.70
2012,01,21,12,58,13.00
2012,01,21,12,59,12.80
2012,01,21,13,00,8.90
2012,01,21,13,01,13.60
2012,01,21,13,02,8.90
2012,01,21,13,03,15.80
2012,01,21,13,04,10.00
2012,01,21,13,05,3.40
2012,01,21,13,06,4.80
2012,01,21,13,07,5.10
2012,01,21,13,08,13.80
2012,01,21,13,09,10.90
2012,01,21,13,10,12.60
2012,01,21,13,11,19.80
2012,01,21,13,12,15.90
2012,01,21,13,13,19.30
2012,01,21,13,14,23.40
2012,01,21,13,15,21.70
2012,01,21,13,16,17.30
2012,01,21,13,17,7.90
2012,01,21,13,18,18.20
2012,01,21,13,19,16.50
2012,01,21,13,20,8.50
2012,01,21,13,21,7.00
2012,01,21,13,22,13.40
2012,01,21,13,23,14.30
2012,01,21,13,24,15.90
2012,01,21,13,25,12.20
2012,01,21,13,26,8.50
2012,01,21,13,27,7.50
2012,01,21,13,28,5.30
2012,01,21,13,29,15.60
2012,01,21,13,30,9.50
2012,01,21,13,31,8.20
2012,01,21,13,32,14.60
2012,01,21,13,33,4.50
2012,01,21,13,34,4.60
2012,01,21,13,35,5.30
2012,01,21,13,36,14.30
2012,01,21,13,37,15.30
2012,01,21,13,38,9.70
2012,01,21,13,39,8.20
2012,01,21,13,40,15.60
2012,01,21,13,41,13.70
2012,01,21,13,42,13.00
2012,01,21,13,43,11.50
2012,01,21,13,44,20.40
2012,01,21,13,45,16.20
2012,01,21,13,46,15.60
2012,01,21,13,47,16.50
2012,01,21,13,48,15.90
2012,01,21,13,49,28.10
2012,01,21,13,50,28.60
2012,01,21,13,51,16.90
2012,01,21,13,52,20.80
2012,01,21,13,53,23.70
2012,01,21,13,54,22.00
2012,01,21,13,55,21.20
2012,01,21,13,56,19.60
2012,01,21,13,57,10.90
2012,01,21,13,58,18.80
2012,01,21,13,59,18.70
2012,01,21,14,00,20.10
2012,01,21,14,01,30.30
2012,01,21,14,02,23.70
2012,01,21,14,03,18.90
2012,01,21,14,04,16.00
2012,01,21,14,05,18.50
2012,01,21,14,06,8.00
2012,01,21,14,07,18.80
2012,01,21,14,08,13.60
2012,01,21,14,09,18.10
2012,01,21,14,10,17.50
2012,01,21,14,11,15.40
2012,01,21,14,12,15.20
2012,01,21,14,13,24.90
2012,01,21,14,14,19.50
2012,01,21,14,15,14.80
2012,01,21,14,16,17.90
2012,01,21,14,17,18.00
2012,01,21,14,18,17.40
2012,01,21,14,19,15.00
2012,01,21,14,20,11.30
2012,01,21,14,21,20.70
2012,01,21,14,22,18.50
2012,01,21,14,23,12.50
2012,01,21,14,24,8.40
2012,01,21,14,25,5.10
2012,01,21,14,26,22.10
2012,01,21,14,27,19.10
2012,01,21,14,28,19.80
2012,01,21,14,29,14.70
2012,01,21,14,30,15.40
2012,01,21,14,31,24.30
2012,01,21,14,32,28.60
2012,01,21,14,33,23.10
2012,01,21,14,34,24.20
2012,01,21,14,35,23.20
2012,01,21,14,36,18.70
2012,01,21,14,37,17.50
2012,01,21,14,38,13.40
2012,01,21,14,39,9.30
2012,01,21,14,40,17.30
2012,01,21,14,41,10.00
2012,01,21,14,42,8.60
2012,01,21,14,43,14.00
2012,01,21,14,44,14.90
2012,01,21,14,45,15.60
2012,01,21,14,46,15.60
2012,01,21,14,47,18.00
2012,01,21,14,48,20.80
2012,01,21,14,49,22.30
2012,01,21,14,50,16.20
2012,01,21,14,51,13.10
2012,01,21,14,52,8.00
2012,01,21,14,53,22.00
2012,01,21,14,54,17.10
2012,01,21,14,55,12.30
2012,01,21,14,56,9.50
2012,01,21,14,57,11.00
2012,01,21,14,58,8.40
2012,01,21,14,59,10.00
2012,01,21,15,00,13.30
2012,01,21,15,01,16.10
2012,01,21,15,02,17.30
2012,01,21,15,03,10.20
2012,01,21,15,04,7.30
2012,01,21,15,05,10.60
2012,01,21,15,06,12.50
2012,01,21,15,07,2.80
2012,01,21,15,08,13.70
2012,01,21,15,09,8.90
2012,01,21,15,10,18.30
2012,01,21,15,11,22.20
2012,01,21,15,12,15.80
2012,01,21,15,13,23.30
2012,01,21,15,14,18.10
2012,01,21,15,15,15.70
2012,01,21,15,16,11.00
2012,01,21,15,17,16.70
2012,01,21,15,18,25.50
2012,01,21,15,19,17.60
2012,01,21,15,20,28.60
2012,01,21,15,21,15.10
2012,01,21,15,22,21.60
2012,01,21,15,23,11.50
2012,01,21,15,24,11.90
2012,01,21,15,25,15.60
2012,01,21,15,26,20.70
2012,01,21,15,27,16.50
2012,01,21,15,28,7.60
2012,01,21,15,29,15.00
2012,01,21,15,30,15.60
2012,01,21,15,31,14.30
2012,01,21,15,32,10.10
2012,01,21,15,33,8.20
2012,01,21,15,34,8.60
2012,01,21,15,35,9.60
2012,01,21,15,36,15.30
2012,01,21,15,37,13.30
2012,01,21,15,38,11.00
2012,01,21,15,39,4.90
2012,01,21,15,40,8.00
2012,01,21,15,41,13.10
2012,01,21,15,42,12.90
2012,01,21,15,43,8.60
2012,01,21,15,44,5.80
2012,01,21,15,45,13.90
2012,01,21,15,46,21.90
2012,01,21,15,47,18.50
2012,01,21,15,48,13.90
2012,01,21,15,49,13.10
2012,01,21,15,50,10.00
2012,01,21,15,51,8.20
2012,01,21,15,52,19.10
2012,01,21,15,53,20.90
2012,01,21,15,54,15.90
2012,01,21,15,55,24.80
2012,01,21,15,56,18.60
2012,01,21,15,57,20.10
2012,01,21,15,58,20.60
2012,01,21,15,59,17.10
2012,01,21,16,00,9.30
2012,01,21,16,01,18.50
2012,01,21,16,02,18.70
2012,01,21,16,03,19.40
2012,01,21,16,04,17.10
2012,01,21,16,05,10.60
2012,01,21,16,06,17.00
2012,01,21,16,07,15.00
2012,01,21,16,08,19.90
2012,01,21,16,09,14.20
2012,01,21,16,10,13.00
2012,01,21,16,11,15.70
2012,01,21,16,12,15.50
2012,01,21,16,13,13.60
2012,01,21,16,14,13.40
2012,01,21,16,15,17.20
2012,01,21,16,16,13.90
2012,01,21,16,17,14.90
2012,01,21,16,18,14.30
2012,01,21,16,19,13.40
2012,01,21,16,20,20.80
2012,01,21,16,21,24.10
2012,01,21,16,22,14.50
2012,01,21,16,23,14.30
2012,01,21,16,24,18.50
2012,01,21,16,25,21.80
2012,01,21,16,26,22.00
2012,01,21,16,27,23.00
2012,01,21,16,28,27.90
2012,01,21,16,29,24.80
2012,01,21,16,30,23.20
2012,01,21,16,31,23.20
2012,01,21,16,32,20.60
2012,01,21,16,33,20.80
2012,01,21,16,34,16.40
2012,01,21,16,35,19.60
2012,01,21,16,36,21.80
2012,01,21,16,37,23.70
2012,01,21,16,38,21.10
2012,01,21,16,39,24.10
2012,01,21,16,40,22.70
2012,01,21,16,41,16.70
2012,01,21,16,42,20.20
2012,01,21,16,43,8.60
2012,01,21,16,44,16.20
2012,01,21,16,45,12.00
2012,01,21,16,46,11.30
2012,01,21,16,47,20.00
2012,01,21,16,48,21.70
2012,01,21,16,49,19.70
2012,01,21,16,50,21.00
2012,01,21,16,51,18.30
2012,01,21,16,52,17.60
2012,01,21,16,53,12.30
2012,01,21,16,54,18.00
2012,01,21,16,55,17.30
2012,01,21,16,56,19.20
2012,01,21,16,57,12.80
2012,01,21,16,58,22.40
2012,01,21,16,59,21.50
2012,01,21,17,00,24.70
2012,01,21,17,01,21.60
2012,01,21,17,02,13.40
2012,01,21,17,03,18.80
2012,01,21,17,04,13.40
2012,01,21,17,05,11.00
2012,01,21,17,06,11.30
2012,01,21,17,07,9.40
2012,01,21,17,08,7.60
2012,01,21,17,09,8.40
2012,01,21,17,10,12.20
2012,01,21,17,11,17.90
2012,01,21,17,12,8.70
2012,01,21,17,13,6.90
2012,01,21,17,14,17.80
2012,01,21,17,15,15.30
2012,01,21,17,16,16.20
2012,01,21,17,17,15.00
2012,01,21,17,18,14.10
2012,01,21,17,19,16.20
2012,01,21,17,20,11.50
2012,01,21,17,21,22.40
2012,01,21,17,22,23.00
2012,01,21,17,23,26.20
2012,01,21,17,24,13.90
2012,01,21,17,25,21.60
2012,01,21,17,26,20.10
2012,01,21,17,27,16.30
2012,01,21,17,28,16.20
2012,01,21,17,29,15.10
2012,01,21,17,30,16.60
2012,01,21,17,31,15.70
2012,01,21,17,32,10.50
2012,01,21,17,33,9.90
2012,01,21,17,34,17.50
2012,01,21,17,35,17.20
2012,01,21,17,36,16.80